User: anonymous
Location: Albany
(35.0000°S, 118.0000°E)
Time: 02:11:45
(UTC-04:00)
Language:

Radarsat Rocket - Orbit

View from above orbital plane
View from above orbital plane
View from above satellite
View from above satellite

Ground track
Ground track

The orbit data is extracted from the following two-line orbital elements,

1 23711U 95059B   14112.83429711 -.00000031  00000-0  22963-4 0  6365
2 23711 100.4441 098.9843 0368605 046.9209 013.7934 13.12642104884730
Epoch (UTC): 22 April 2014 20:01:23
Eccentricity: 0.0368605
inclination: 100.4441°
perigee height: 933 km
apogee height: 1493 km
right ascension of ascending node: 98.9843°
argument of perigee: 46.9209°
revolutions per day: 13.12642104
mean anomaly at epoch: 13.7934°
orbit number at epoch: 88473

The dashed part of the orbit path shows where the satellite is in the earth's shadow,  

DLR